| time (UTC) | temp F | wind direction | speed MPH | gust MPH | rain 1hr in | rain 24hr in | rain mn in | humidity % | barometer mb |
| 20260504050004 | 50 | 266 | 0.0 | 1.0 | 0.00 | 0.00 | 0.00 | 60 | 1017.3 |
| 20260504045403 | 51 | 271 | 0.0 | 1.0 | 0.00 | 0.00 | 0.00 | 62 | 1017.3 |
| 20260504044504 | 51 | 246 | 0.0 | 1.0 | 0.00 | 0.00 | 0.00 | 60 | 1017.2 |
| 20260504043603 | 51 | 228 | 0.0 | 2.0 | 0.00 | 0.00 | 0.00 | 60 | 1017.0 |
| 20260504042703 | 51 | 248 | 0.0 | 2.0 | 0.00 | 0.00 | 0.00 | 58 | 1017.1 |
| 20260504041803 | 53 | 252 | 0.0 | 1.0 | 0.00 | 0.00 | 0.00 | 54 | 1017.0 |
| 20260504040903 | 53 | 254 | 0.0 | 1.0 | 0.00 | 0.00 | 0.00 | 47 | 1017.1 |
| 20260504040025 | 52 | 245 | 0.0 | 2.0 | 0.00 | 0.00 | 0.00 | 48 | 1017.1 |
| 20260504035403 | 52 | 260 | 0.0 | 1.0 | 0.00 | 0.00 | 0.00 | 53 | 1017.3 |
| 20260504034503 | 51 | 0 | 0.0 | 0.0 | 0.00 | 0.00 | 0.00 | 52 | 1017.2 |
| 20260504033624 | 49 | 0 | 0.0 | 0.0 | 0.00 | 0.00 | 0.00 | 52 | 1017.2 |
| 20260504032724 | 49 | 260 | 0.0 | 1.0 | 0.00 | 0.00 | 0.00 | 59 | 1017.0 |
| 20260504031803 | 49 | 0 | 0.0 | 0.0 | 0.00 | 0.00 | 0.00 | 55 | 1017.2 |
| 20260504030903 | 50 | 0 | 0.0 | 0.0 | 0.00 | 0.00 | 0.00 | 53 | 1017.1 |
| 20260504030024 | 50 | 0 | 0.0 | 0.0 | 0.00 | 0.00 | 0.00 | 54 | 1017.2 |
| 20260504025403 | 51 | 247 | 0.0 | 1.0 | 0.00 | 0.00 | 0.00 | 56 | 1017.3 |
| 20260504024524 | 51 | 250 | 0.0 | 1.0 | 0.00 | 0.00 | 0.00 | 53 | 1017.1 |
| 20260504023603 | 52 | 265 | 0.0 | 1.0 | 0.00 | 0.00 | 0.00 | 50 | 1017.2 |
| 20260504022724 | 52 | 272 | 0.0 | 1.0 | 0.00 | 0.00 | 0.00 | 54 | 1017.1 |
| 20260504021803 | 53 | 311 | 0.0 | 1.0 | 0.00 | 0.00 | 0.00 | 47 | 1016.9 |
| 20260504020903 | 53 | 326 | 0.0 | 1.0 | 0.00 | 0.00 | 0.00 | 46 | 1016.9 |
| 20260504020003 | 52 | 250 | 0.0 | 1.0 | 0.00 | 0.00 | 0.00 | 48 | 1016.7 |
| 20260504015403 | 51 | 237 | 0.0 | 2.0 | 0.00 | 0.00 | 0.00 | 44 | 1016.8 |
| 20260504014503 | 53 | 279 | 0.0 | 1.0 | 0.00 | 0.00 | 0.00 | 49 | 1016.7 |
| 20260504013603 | 53 | 246 | 0.0 | 2.0 | 0.00 | 0.00 | 0.00 | 49 | 1016.4 |
| 20260504012703 | 52 | 247 | 0.0 | 2.0 | 0.00 | 0.00 | 0.00 | 39 | 1016.7 |
| 20260504011803 | 53 | 0 | 0.0 | 0.0 | 0.00 | 0.00 | 0.00 | 49 | 1016.4 |
| 20260504010903 | 53 | 0 | 0.0 | 0.0 | 0.00 | 0.00 | 0.00 | 51 | 1016.2 |
| 20260504010024 | 53 | 0 | 0.0 | 0.0 | 0.00 | 0.00 | 0.00 | 45 | 1016.3 |
| 20260504005403 | 53 | 0 | 0.0 | 0.0 | 0.00 | 0.00 | 0.00 | 44 | 1016.2 |
| 20260504004503 | 53 | 0 | 0.0 | 0.0 | 0.00 | 0.00 | 0.00 | 44 | 1016.2 |
| 20260504003603 | 53 | 0 | 0.0 | 0.0 | 0.00 | 0.00 | 0.00 | 45 | 1016.1 |
| 20260504002703 | 53 | 244 | 0.0 | 1.0 | 0.00 | 0.00 | 0.00 | 50 | 1016.1 |
| 20260504001803 | 54 | 0 | 0.0 | 0.0 | 0.00 | 0.00 | 0.00 | 48 | 1016.1 |
| 20260504000903 | 55 | 0 | 0.0 | 0.0 | 0.00 | 0.00 | 0.00 | 46 | 1016.2 |
| 20260504000005 | 56 | 269 | 0.0 | 1.0 | 0.00 | 0.00 | 0.00 | 45 | 1016.1 |
| 20260503235404 | 56 | 272 | 0.0 | 1.0 | 0.00 | 0.00 | 0.00 | 45 | 1015.9 |
| 20260503234525 | 58 | 0 | 0.0 | 0.0 | 0.00 | 0.00 | 0.00 | 42 | 1015.9 |
| 20260503233604 | 59 | 261 | 0.0 | 1.0 | 0.00 | 0.00 | 0.00 | 37 | 1015.8 |
| 20260503232704 | 60 | 244 | 0.0 | 1.0 | 0.00 | 0.00 | 0.00 | 32 | 1016.0 |
| 20260503231804 | 61 | 217 | 1.0 | 4.0 | 0.00 | 0.00 | 0.00 | 33 | 1015.8 |
| 20260503230904 | 61 | 223 | 1.0 | 4.0 | 0.00 | 0.00 | 0.00 | 27 | 1015.9 |
| 20260503230025 | 61 | 208 | 1.0 | 4.0 | 0.00 | 0.00 | 0.00 | 29 | 1015.8 |
| 20260503225404 | 61 | 232 | 1.0 | 3.0 | 0.00 | 0.00 | 0.00 | 31 | 1015.9 |
| 20260503224505 | 62 | 232 | 1.0 | 3.0 | 0.00 | 0.00 | 0.00 | 28 | 1016.1 |
| 20260503223604 | 62 | 234 | 1.0 | 4.0 | 0.00 | 0.00 | 0.00 | 27 | 1016.0 |
| 20260503222704 | 62 | 217 | 2.0 | 6.0 | 0.00 | 0.00 | 0.00 | 28 | 1016.2 |
| 20260503221804 | 62 | 219 | 2.0 | 6.0 | 0.00 | 0.00 | 0.00 | 27 | 1016.0 |
| 20260503220904 | 63 | 227 | 1.0 | 4.0 | 0.00 | 0.00 | 0.00 | 28 | 1016.1 |
| 20260503220004 | 62 | 230 | 1.0 | 6.0 | 0.00 | 0.00 | 0.00 | 28 | 1016.1 |
| 20260503215404 | 63 | 231 | 2.0 | 6.0 | 0.00 | 0.00 | 0.00 | 26 | 1016.1 |
| 20260503214504 | 64 | 211 | 2.0 | 7.0 | 0.00 | 0.00 | 0.00 | 27 | 1016.3 |
| 20260503213604 | 64 | 208 | 2.0 | 7.0 | 0.00 | 0.00 | 0.00 | 29 | 1016.4 |
| 20260503212704 | 65 | 236 | 2.0 | 6.0 | 0.00 | 0.00 | 0.00 | 27 | 1016.2 |
| 20260503211825 | 67 | 253 | 1.0 | 4.0 | 0.00 | 0.00 | 0.00 | 26 | 1016.3 |
| 20260503210904 | 67 | 239 | 2.0 | 6.0 | 0.00 | 0.00 | 0.00 | 25 | 1016.3 |
| 20260503210005 | 67 | 220 | 2.0 | 7.0 | 0.00 | 0.00 | 0.00 | 24 | 1016.4 |
| 20260503205404 | 68 | 258 | 1.0 | 4.0 | 0.00 | 0.00 | 0.00 | 26 | 1016.4 |
| 20260503204504 | 67 | 235 | 2.0 | 4.0 | 0.00 | 0.00 | 0.00 | 24 | 1016.6 |
| 20260503203625 | 67 | 225 | 2.0 | 7.0 | 0.00 | 0.00 | 0.00 | 25 | 1016.6 |
| 20260503202725 | 67 | 223 | 2.0 | 7.0 | 0.00 | 0.00 | 0.00 | 27 | 1016.5 |
| 20260503201804 | 66 | 238 | 2.0 | 6.0 | 0.00 | 0.00 | 0.00 | 26 | 1016.8 |
| 20260503200904 | 67 | 227 | 2.0 | 4.0 | 0.00 | 0.00 | 0.00 | 26 | 1017.0 |
| 20260503200004 | 69 | 228 | 2.0 | 6.0 | 0.00 | 0.00 | 0.00 | 25 | 1017.2 |
| 20260503195404 | 66 | 223 | 2.0 | 6.0 | 0.00 | 0.00 | 0.00 | 26 | 1017.4 |
| 20260503194525 | 66 | 230 | 2.0 | 4.0 | 0.00 | 0.00 | 0.00 | 26 | 1017.5 |
| 20260503193604 | 67 | 234 | 2.0 | 6.0 | 0.00 | 0.00 | 0.00 | 28 | 1017.5 |
| 20260503192704 | 67 | 209 | 2.0 | 7.0 | 0.00 | 0.00 | 0.00 | 27 | 1017.7 |
| 20260503191804 | 65 | 247 | 2.0 | 4.0 | 0.00 | 0.00 | 0.00 | 28 | 1017.6 |
| 20260503190904 | 66 | 243 | 1.0 | 4.0 | 0.00 | 0.00 | 0.00 | 28 | 1017.9 |
| 20260503190004 | 66 | 269 | 2.0 | 3.0 | 0.00 | 0.00 | 0.00 | 30 | 1018.0 |
| 20260503185404 | 66 | 268 | 2.0 | 4.0 | 0.00 | 0.00 | 0.00 | 28 | 1018.1 |
| 20260503184504 | 65 | 249 | 2.0 | 6.0 | 0.00 | 0.00 | 0.00 | 28 | 1018.4 |
| 20260503183604 | 66 | 226 | 2.0 | 4.0 | 0.00 | 0.00 | 0.00 | 27 | 1018.6 |
| 20260503182704 | 65 | 257 | 2.0 | 6.0 | 0.00 | 0.00 | 0.00 | 31 | 1018.4 |
| 20260503181825 | 63 | 212 | 2.0 | 6.0 | 0.00 | 0.00 | 0.00 | 30 | 1018.5 |
| 20260503180904 | 62 | 217 | 2.0 | 8.0 | 0.00 | 0.00 | 0.00 | 31 | 1018.7 |
| 20260503180005 | 61 | 216 | 2.0 | 6.0 | 0.00 | 0.00 | 0.00 | 34 | 1018.7 |
| 20260503175404 | 61 | 244 | 2.0 | 4.0 | 0.00 | 0.00 | 0.00 | 34 | 1018.9 |
| 20260503174504 | 60 | 220 | 2.0 | 8.0 | 0.00 | 0.00 | 0.00 | 33 | 1019.1 |
| 20260503173604 | 60 | 197 | 2.0 | 8.0 | 0.00 | 0.00 | 0.00 | 32 | 1019.2 |
| 20260503172725 | 59 | 221 | 2.0 | 8.0 | 0.00 | 0.00 | 0.00 | 37 | 1019.2 |
| 20260503171804 | 57 | 230 | 2.0 | 10.0 | 0.00 | 0.00 | 0.00 | 35 | 1019.4 |
| 20260503170904 | 57 | 218 | 2.0 | 6.0 | 0.00 | 0.00 | 0.00 | 36 | 1019.5 |
| 20260503150925 | 50 | 212 | 2.0 | 7.0 | 0.00 | 0.00 | 0.00 | 44 | 1020.4 |
| 20260503130904 | 45 | 222 | 2.0 | 8.0 | 0.00 | 0.00 | 0.00 | 51 | 1020.4 |
| 20260503080925 | 41 | 248 | 0.0 | 1.0 | 0.00 | 0.00 | 0.00 | 67 | 1017.3 |